BVR114 OEDF-OMAA

Flight info

Callsign BVR114
Flight time 0h 56m
Altitude 33000
Route LADNA N318 VELAM P708 VUTAN N318 KAPUM N685 GIDOB
Aircraft A321/M-SDE3FGHIRWY/LB1

Departure

Time 2026-04-23 14:55
Airport King Fahd International Airport (OEDF)

Arrival

Time 2026-04-23 15:51
Airport Zayed International Airport (OMAA)
Time Latitude Longitude Altitude Speed Heading
2026-04-23 14:38 26.46631 49.79569 88 ft 0 kts 85°
2026-04-23 14:43 26.46630 49.79567 85 ft 2 kts 85°
2026-04-23 14:43 26.46627 49.79538 89 ft 4 kts 76°
2026-04-23 14:44 26.46618 49.79510 87 ft 4 kts 59°
2026-04-23 14:44 26.46602 49.79489 87 ft 4 kts 15°
2026-04-23 14:44 26.46589 49.79487 87 ft 1 kts 355°
2026-04-23 14:44 26.46588 49.79488 87 ft 0 kts 355°
2026-04-23 14:46 26.46594 49.79487 87 ft 3 kts 355°
2026-04-23 14:46 26.46625 49.79484 89 ft 6 kts 354°
2026-04-23 14:47 26.46680 49.79470 87 ft 10 kts 345°
2026-04-23 14:47 26.46757 49.79448 85 ft 13 kts 345°
2026-04-23 14:47 26.46855 49.79417 89 ft 16 kts 342°
2026-04-23 14:47 26.46968 49.79361 87 ft 19 kts 334°
2026-04-23 14:48 26.47095 49.79289 86 ft 22 kts 332°
2026-04-23 14:48 26.47240 49.79211 87 ft 24 kts 335°
2026-04-23 14:48 26.47405 49.79138 88 ft 24 kts 343°
2026-04-23 14:48 26.47538 49.79146 89 ft 20 kts 41°
2026-04-23 14:49 26.47572 49.79300 88 ft 21 kts 78°
2026-04-23 14:49 26.47610 49.79456 94 ft 21 kts 75°
2026-04-23 14:49 26.47652 49.79622 94 ft 23 kts 74°
2026-04-23 14:49 26.47698 49.79807 94 ft 26 kts 75°
2026-04-23 14:50 26.47751 49.80017 89 ft 31 kts 75°
2026-04-23 14:50 26.47810 49.80262 88 ft 34 kts 75°
2026-04-23 14:50 26.47875 49.80522 86 ft 36 kts 75°
2026-04-23 14:50 26.47938 49.80769 89 ft 23 kts 74°
2026-04-23 14:51 26.47868 49.80886 89 ft 22 kts 162°
2026-04-23 14:51 26.47707 49.80935 88 ft 26 kts 165°
2026-04-23 14:51 26.47522 49.80993 86 ft 29 kts 165°
2026-04-23 14:51 26.47315 49.81057 86 ft 32 kts 163°
2026-04-23 14:52 26.47090 49.81127 86 ft 35 kts 164°
2026-04-23 14:52 26.46848 49.81201 88 ft 37 kts 165°
2026-04-23 14:52 26.46594 49.81280 90 ft 39 kts 165°
2026-04-23 14:52 26.46322 49.81364 89 ft 42 kts 164°
2026-04-23 14:53 26.46035 49.81452 85 ft 44 kts 165°
2026-04-23 14:53 26.45742 49.81544 90 ft 40 kts 163°
2026-04-23 14:53 26.45539 49.81604 86 ft 21 kts 167°
2026-04-23 14:53 26.45426 49.81545 86 ft 21 kts 252°
2026-04-23 14:54 26.45496 49.81411 87 ft 22 kts 335°
2026-04-23 14:54 26.45535 49.81397 88 ft 0 kts 343°
2026-04-23 14:54 26.45587 49.81381 88 ft 35 kts 345°
2026-04-23 14:54 26.46080 49.81229 89 ft 108 kts 344°
2026-04-23 14:55 26.46993 49.80947 110 ft 160 kts 346°
2026-04-23 14:55 26.48055 49.80594 840 ft 154 kts 347°
2026-04-23 14:55 26.49089 49.80271 1624 ft 154 kts 347°
2026-04-23 14:55 26.50138 49.79954 2119 ft 163 kts 345°
2026-04-23 14:56 26.51316 49.79597 2352 ft 186 kts 343°
2026-04-23 14:56 26.52654 49.79296 2537 ft 207 kts
2026-04-23 14:56 26.54049 49.79824 2702 ft 231 kts 37°
2026-04-23 14:56 26.54941 49.81409 3064 ft 259 kts 75°
2026-04-23 14:57 26.55010 49.83483 3605 ft 276 kts 94°
2026-04-23 14:57 26.54734 49.85641 4282 ft 284 kts 101°
2026-04-23 14:57 26.54326 49.87835 4999 ft 291 kts 104°
2026-04-23 14:57 26.53888 49.90055 5731 ft 295 kts 105°
2026-04-23 14:58 26.53462 49.92307 6489 ft 298 kts 105°
2026-04-23 14:58 26.53058 49.94599 6868 ft 301 kts 103°
2026-04-23 14:58 26.52682 49.96895 6993 ft 300 kts 103°
2026-04-23 14:58 26.52324 49.99194 7019 ft 302 kts 103°
2026-04-23 14:59 26.51973 50.01505 7017 ft 301 kts 103°
2026-04-23 14:59 26.51624 50.03816 7022 ft 301 kts 102°
2026-04-23 14:59 26.51274 50.06124 7024 ft 301 kts 102°
2026-04-23 14:59 26.50923 50.08439 7000 ft 302 kts 103°
2026-04-23 15:00 26.50571 50.10748 6998 ft 302 kts 103°
2026-04-23 15:00 26.50220 50.13041 6999 ft 301 kts 103°
2026-04-23 15:00 26.49867 50.15341 6989 ft 301 kts 103°
2026-04-23 15:00 26.49508 50.17659 6992 ft 302 kts 102°
2026-04-23 15:01 26.49153 50.19956 6985 ft 302 kts 102°
2026-04-23 15:01 26.48792 50.22280 6987 ft 305 kts 102°
2026-04-23 15:01 26.48426 50.24625 6982 ft 305 kts 102°
2026-04-23 15:01 26.48061 50.26960 6988 ft 304 kts 102°
2026-04-23 15:02 26.47819 50.28507 6989 ft 305 kts 102°
2026-04-23 15:02 26.47342 50.31601 6992 ft 305 kts 102°
2026-04-23 15:02 26.46983 50.33941 6987 ft 306 kts 102°
2026-04-23 15:02 26.46623 50.36267 6990 ft 301 kts 103°
2026-04-23 15:03 26.46204 50.38517 6990 ft 292 kts 111°
2026-04-23 15:03 26.45796 50.39964 7155 ft 298 kts 110°
2026-04-23 15:03 26.45173 50.42180 7838 ft 302 kts 112°
2026-04-23 15:03 26.44538 50.44445 8488 ft 309 kts 110°
2026-04-23 15:04 26.43892 50.46748 9165 ft 314 kts 111°
2026-04-23 15:04 26.43233 50.49095 9817 ft 320 kts 111°
2026-04-23 15:04 26.42557 50.51507 10228 ft 334 kts 111°
2026-04-23 15:04 26.41835 50.54077 10383 ft 358 kts 111°
2026-04-23 15:05 26.41077 50.56775 10575 ft 377 kts 110°
2026-04-23 15:05 26.40288 50.59598 11121 ft 384 kts 110°
2026-04-23 15:05 26.39481 50.62469 11737 ft 388 kts 111°
2026-04-23 15:05 26.38666 50.65356 12364 ft 392 kts 111°
2026-04-23 15:06 26.37838 50.68274 12937 ft 398 kts 111°
2026-04-23 15:06 26.36996 50.71233 13569 ft 402 kts 111°
2026-04-23 15:06 26.36145 50.74221 14149 ft 406 kts 111°
2026-04-23 15:06 26.35290 50.77228 14724 ft 409 kts 111°
2026-04-23 15:07 26.34434 50.80239 15303 ft 412 kts 111°
2026-04-23 15:07 26.33561 50.83301 15874 ft 416 kts 111°
2026-04-23 15:07 26.32680 50.86381 16463 ft 419 kts 111°
2026-04-23 15:07 26.31789 50.89494 17015 ft 423 kts 111°
2026-04-23 15:08 26.30887 50.92639 17582 ft 427 kts 111°
2026-04-23 15:08 26.29770 50.95701 18121 ft 427 kts 121°
2026-04-23 15:08 26.28322 50.98611 18611 ft 430 kts 123°
2026-04-23 15:09 26.25372 51.04457 19618 ft 436 kts 123°
2026-04-23 15:09 26.23882 51.07417 20120 ft 439 kts 123°
2026-04-23 15:09 26.22388 51.10393 20631 ft 442 kts 123°
2026-04-23 15:09 26.20900 51.13361 21130 ft 445 kts 122°
2026-04-23 15:10 26.19372 51.16412 21608 ft 448 kts 122°
2026-04-23 15:10 26.17856 51.19435 22072 ft 452 kts 122°
2026-04-23 15:10 26.16314 51.22500 22507 ft 455 kts 122°
2026-04-23 15:10 26.14758 51.25585 22959 ft 458 kts 122°
2026-04-23 15:11 26.13208 51.28657 23387 ft 461 kts 122°
2026-04-23 15:11 26.11622 51.31798 23760 ft 465 kts 122°
2026-04-23 15:11 26.10030 51.34952 24127 ft 467 kts 122°
2026-04-23 15:11 26.08440 51.38093 24476 ft 470 kts 122°
2026-04-23 15:12 26.06825 51.41276 24852 ft 472 kts 122°
2026-04-23 15:12 26.05227 51.44433 25219 ft 474 kts 122°
2026-04-23 15:12 26.03589 51.47670 25593 ft 477 kts 122°
2026-04-23 15:12 26.01974 51.50856 25945 ft 479 kts 122°
2026-04-23 15:13 26.00328 51.54092 26302 ft 482 kts 122°
2026-04-23 15:13 25.98669 51.57352 26659 ft 484 kts 122°
2026-04-23 15:13 25.97004 51.60629 27015 ft 486 kts 122°
2026-04-23 15:13 25.95355 51.63878 27354 ft 489 kts 122°
2026-04-23 15:14 25.93677 51.67177 27682 ft 491 kts 122°
2026-04-23 15:14 25.91995 51.70481 28019 ft 493 kts 122°
2026-04-23 15:14 25.90298 51.73813 28353 ft 495 kts 122°
2026-04-23 15:14 25.88616 51.77166 28679 ft 498 kts 121°
2026-04-23 15:15 25.86955 51.80545 28997 ft 500 kts 121°
2026-04-23 15:15 25.85299 51.83961 29280 ft 504 kts 120°
2026-04-23 15:15 25.83649 51.87397 29600 ft 506 kts 120°
2026-04-23 15:15 25.82055 51.90892 29911 ft 509 kts 118°
2026-04-23 15:16 25.80538 51.94449 30274 ft 509 kts 116°
2026-04-23 15:16 25.79076 51.98035 30631 ft 510 kts 116°
2026-04-23 15:16 25.77632 52.01633 30955 ft 510 kts 116°
2026-04-23 15:16 25.76181 52.05220 31289 ft 510 kts 116°
2026-04-23 15:17 25.74712 52.08784 31607 ft 511 kts 116°
2026-04-23 15:17 25.73215 52.12360 31929 ft 512 kts 116°
2026-04-23 15:17 25.71699 52.15947 32256 ft 513 kts 117°
2026-04-23 15:17 25.70176 52.19527 32577 ft 513 kts 117°
2026-04-23 15:18 25.68647 52.23106 32825 ft 515 kts 117°
2026-04-23 15:18 25.65635 52.30180 32881 ft 506 kts 117°
2026-04-23 15:19 25.62630 52.37283 32878 ft 505 kts 116°
2026-04-23 15:19 25.59484 52.44239 32881 ft 504 kts 121°
2026-04-23 15:20 25.56007 52.50979 32887 ft 504 kts 122°
2026-04-23 15:20 25.52473 52.57671 32881 ft 503 kts 122°
2026-04-23 15:21 25.49024 52.64417 32875 ft 504 kts 121°
2026-04-23 15:21 25.45617 52.71209 32872 ft 504 kts 121°
2026-04-23 15:22 25.42147 52.77892 32869 ft 504 kts 123°
2026-04-23 15:22 25.38466 52.84490 32884 ft 503 kts 124°
2026-04-23 15:23 25.34720 52.91039 32897 ft 503 kts 124°
2026-04-23 15:23 25.32864 52.94319 32687 ft 503 kts 124°
2026-04-23 15:23 25.31148 52.97682 32276 ft 502 kts 116°
2026-04-23 15:23 25.29722 53.01197 31722 ft 499 kts 115°
2026-04-23 15:24 25.28317 53.04692 31168 ft 497 kts 115°
2026-04-23 15:24 25.26903 53.08188 30590 ft 496 kts 115°
2026-04-23 15:24 25.25494 53.11645 30019 ft 494 kts 115°
2026-04-23 15:24 25.24077 53.15102 29386 ft 492 kts 115°
2026-04-23 15:25 25.22667 53.18532 28820 ft 488 kts 115°
2026-04-23 15:25 25.21268 53.21935 28251 ft 484 kts 116°
2026-04-23 15:25 25.19878 53.25312 27672 ft 481 kts 116°
2026-04-23 15:25 25.18475 53.28642 27091 ft 477 kts 119°
2026-04-23 15:26 25.16751 53.31740 26544 ft 470 kts 128°
2026-04-23 15:26 25.14740 53.34502 26001 ft 465 kts 132°
2026-04-23 15:26 25.12678 53.37248 25449 ft 462 kts 132°
2026-04-23 15:26 25.10629 53.39976 24896 ft 459 kts 132°
2026-04-23 15:27 25.08600 53.42685 24367 ft 456 kts 132°
2026-04-23 15:27 25.06582 53.45382 23841 ft 452 kts 132°
2026-04-23 15:27 25.04587 53.48051 23296 ft 449 kts 132°
2026-04-23 15:27 25.02633 53.50662 22775 ft 444 kts 132°
2026-04-23 15:28 25.00671 53.53280 22284 ft 439 kts 132°
2026-04-23 15:28 24.98741 53.55852 21820 ft 433 kts 132°
2026-04-23 15:28 24.96889 53.58467 21346 ft 431 kts 126°
2026-04-23 15:28 24.95345 53.61282 20882 ft 428 kts 123°
2026-04-23 15:29 24.93839 53.64102 20415 ft 425 kts 123°
2026-04-23 15:29 24.92340 53.66900 19927 ft 422 kts 123°
2026-04-23 15:29 24.90850 53.69671 19450 ft 419 kts 123°
2026-04-23 15:29 24.89366 53.72429 18941 ft 417 kts 123°
2026-04-23 15:30 24.87889 53.75174 18442 ft 415 kts 123°
2026-04-23 15:30 24.86418 53.77902 17891 ft 413 kts 123°
2026-04-23 15:30 24.84971 53.80585 17369 ft 410 kts 124°
2026-04-23 15:30 24.83523 53.83267 16832 ft 406 kts 123°
2026-04-23 15:31 24.82084 53.85926 16318 ft 402 kts 123°
2026-04-23 15:31 24.80657 53.88559 15786 ft 398 kts 123°
2026-04-23 15:31 24.79250 53.91163 15338 ft 393 kts 123°
2026-04-23 15:31 24.77886 53.93701 15211 ft 377 kts 123°
2026-04-23 15:32 24.76575 53.96143 15085 ft 363 kts 123°
2026-04-23 15:32 24.75310 53.98488 14966 ft 349 kts 124°
2026-04-23 15:32 24.74108 54.00760 14843 ft 338 kts 122°
2026-04-23 15:32 24.73022 54.03015 14604 ft 331 kts 120°
2026-04-23 15:33 24.71998 54.05276 14278 ft 328 kts 120°
2026-04-23 15:33 24.71012 54.07514 14030 ft 324 kts 119°
2026-04-23 15:33 24.70035 54.09735 13789 ft 321 kts 120°
2026-04-23 15:33 24.69057 54.11936 13539 ft 319 kts 120°
2026-04-23 15:34 24.68075 54.14120 13301 ft 318 kts 120°
2026-04-23 15:34 24.67090 54.16291 13062 ft 316 kts 120°
2026-04-23 15:34 24.66109 54.18439 12810 ft 313 kts 120°
2026-04-23 15:34 24.65132 54.20575 12560 ft 311 kts 120°
2026-04-23 15:35 24.64162 54.22694 12317 ft 310 kts 120°
2026-04-23 15:35 24.63196 54.24806 12062 ft 308 kts 120°
2026-04-23 15:35 24.62232 54.26910 11809 ft 308 kts 120°
2026-04-23 15:35 24.61272 54.29009 11577 ft 306 kts 120°
2026-04-23 15:36 24.60330 54.31074 11346 ft 305 kts 120°
2026-04-23 15:36 24.59306 54.33091 11101 ft 300 kts 129°
2026-04-23 15:36 24.57935 54.34792 10866 ft 296 kts 138°
2026-04-23 15:36 24.56471 54.36386 10632 ft 295 kts 138°
2026-04-23 15:37 24.55014 54.37975 10381 ft 294 kts 138°
2026-04-23 15:37 24.53581 54.39543 10148 ft 292 kts 138°
2026-04-23 15:37 24.52610 54.40604 9995 ft 291 kts 138°
2026-04-23 15:37 24.50709 54.42685 9827 ft 291 kts 138°
2026-04-23 15:38 24.49276 54.44255 9715 ft 291 kts 138°
2026-04-23 15:38 24.47845 54.45825 9610 ft 289 kts 137°
2026-04-23 15:38 24.46417 54.47388 9449 ft 289 kts 138°
2026-04-23 15:38 24.45000 54.48935 9256 ft 285 kts 138°
2026-04-23 15:39 24.43635 54.50426 9125 ft 275 kts 138°
2026-04-23 15:39 24.42303 54.51882 8926 ft 268 kts 138°
2026-04-23 15:39 24.41118 54.53435 8859 ft 266 kts 131°
2026-04-23 15:39 24.39980 54.55034 8792 ft 266 kts 131°
2026-04-23 15:40 24.38838 54.56638 8740 ft 266 kts 131°
2026-04-23 15:40 24.37694 54.58239 8673 ft 266 kts 131°
2026-04-23 15:40 24.36547 54.59839 8589 ft 267 kts 131°
2026-04-23 15:40 24.35404 54.61437 8498 ft 266 kts 131°
2026-04-23 15:41 24.34261 54.63043 8400 ft 266 kts 131°
2026-04-23 15:41 24.33124 54.64641 8298 ft 266 kts 131°
2026-04-23 15:41 24.31985 54.66237 8190 ft 265 kts 131°
2026-04-23 15:41 24.30850 54.67827 8095 ft 265 kts 131°
2026-04-23 15:42 24.29712 54.69419 8003 ft 265 kts 131°
2026-04-23 15:42 24.28583 54.70998 7914 ft 263 kts 131°
2026-04-23 15:42 24.27459 54.72575 7816 ft 262 kts 131°
2026-04-23 15:42 24.26337 54.74146 7727 ft 261 kts 131°
2026-04-23 15:43 24.25212 54.75716 7636 ft 261 kts 130°
2026-04-23 15:43 24.24103 54.77260 7548 ft 262 kts 131°
2026-04-23 15:43 24.22981 54.78824 7445 ft 261 kts 131°
2026-04-23 15:43 24.21859 54.80392 7351 ft 260 kts 131°
2026-04-23 15:44 24.20752 54.81980 7266 ft 272 kts 125°
2026-04-23 15:44 24.20096 54.83976 7174 ft 287 kts 98°
2026-04-23 15:44 24.20322 54.86151 7050 ft 292 kts 73°
2026-04-23 15:44 24.21385 54.88043 6677 ft 295 kts 45°
2026-04-23 15:45 24.22963 54.89485 6301 ft 296 kts 38°
2026-04-23 15:45 24.24602 54.90838 5988 ft 293 kts 37°
2026-04-23 15:45 24.26239 54.92166 5618 ft 292 kts 35°
2026-04-23 15:45 24.28090 54.93041 5241 ft 290 kts
2026-04-23 15:46 24.30074 54.92932 4896 ft 285 kts 341°
2026-04-23 15:46 24.31762 54.91880 4592 ft 279 kts 314°
2026-04-23 15:46 24.32796 54.90134 4263 ft 272 kts 286°
2026-04-23 15:46 24.33107 54.88119 3960 ft 267 kts 274°
2026-04-23 15:47 24.33193 54.86778 3742 ft 266 kts 272°
2026-04-23 15:47 24.33288 54.84768 3443 ft 262 kts 272°
2026-04-23 15:47 24.33367 54.82769 3061 ft 261 kts 273°
2026-04-23 15:47 24.33691 54.80862 2912 ft 249 kts 295°
2026-04-23 15:48 24.34615 54.79333 2791 ft 235 kts 317°
2026-04-23 15:48 24.35763 54.78115 2667 ft 224 kts 319°
2026-04-23 15:48 24.36861 54.76947 2481 ft 217 kts 318°
2026-04-23 15:48 24.37933 54.75768 2069 ft 221 kts 316°
2026-04-23 15:49 24.38928 54.74484 1727 ft 222 kts 314°
2026-04-23 15:49 24.39865 54.73178 1430 ft 211 kts 313°
2026-04-23 15:49 24.40727 54.71961 1161 ft 190 kts 313°
2026-04-23 15:49 24.41488 54.70887 938 ft 170 kts 314°
2026-04-23 15:50 24.42176 54.69920 759 ft 153 kts 311°
2026-04-23 15:50 24.42795 54.69050 583 ft 139 kts 313°
2026-04-23 15:50 24.43378 54.68231 403 ft 133 kts 314°
2026-04-23 15:50 24.43950 54.67428 221 ft 133 kts 313°
2026-04-23 15:51 24.44511 54.66632 85 ft 127 kts 311°
2026-04-23 15:51 24.44907 54.66081 74 ft 47 kts 307°
2026-04-23 15:51 24.45046 54.65888 72 ft 30 kts 309°
2026-04-23 15:51 24.45175 54.65717 71 ft 28 kts 307°
2026-04-23 15:52 24.45288 54.65545 74 ft 27 kts 307°
2026-04-23 15:52 24.45381 54.65367 71 ft 27 kts 289°
2026-04-23 15:52 24.45421 54.65171 68 ft 21 kts 281°
2026-04-23 15:52 24.45430 54.65108 75 ft 1 kts 279°
2026-04-23 15:53 24.45433 54.65090 70 ft 3 kts 279°
2026-04-23 15:53 24.45438 54.65058 71 ft 5 kts 280°
2026-04-23 15:53 24.45456 54.65007 70 ft 9 kts 300°
2026-04-23 15:53 24.45470 54.64930 71 ft 12 kts 249°
2026-04-23 15:54 24.45460 54.64901 66 ft 2 kts 250°
2026-04-23 15:54 24.45453 54.64869 72 ft 7 kts 258°
2026-04-23 15:54 24.45475 54.64814 68 ft 0 kts 309°
2026-04-23 15:55 24.45481 54.64806 70 ft 4 kts 309°
2026-04-23 15:55 24.45502 54.64777 69 ft 4 kts 309°
2026-04-23 15:55 24.45531 54.64736 71 ft 9 kts 308°
2026-04-23 15:56 24.45579 54.64669 69 ft 13 kts 308°
2026-04-23 15:56 24.45628 54.64587 73 ft 13 kts 283°
2026-04-23 15:56 24.45601 54.64517 71 ft 9 kts 225°
2026-04-23 15:56 24.45534 54.64463 66 ft 14 kts 218°
2026-04-23 15:57 24.45500 54.64434 68 ft 0 kts 218°
2026-04-23 15:57 24.45498 54.64432 69 ft 2 kts 217°
2026-04-23 15:57 24.45460 54.64402 67 ft 9 kts 216°
2026-04-23 15:58 24.45413 54.64353 72 ft 10 kts 252°
2026-04-23 15:58 24.45400 54.64285 65 ft 0 kts 257°
2026-04-23 15:58 24.45400 54.64283 65 ft 0 kts 258°
2026-04-23 15:59 24.45399 54.64282 68 ft 0 kts 258°